Temp_Advection
nan nan nan nan nan nan nan nan nan nan nan nan nan nan nan nan nan nan nan nan nan nan nan nan nan nan nan nan nan nan nan nan nan nan nan nan nan nan nan nan nan nan nan
nan 0 0 -0 -0 -0 -0 -0 -0 0 1 1 2 0 -2 -1 1 1 1 1 1 1 0 0 0 0 0 -0 -0 -0 -0 -0 -0 -0 -0 -0 0 -0 -0 0 0 0 nan
nan -0 0 1 0 -0 -1 -1 -0 0 1 2 0 -2 -1 1 1 1 1 1 1 1 1 0 0 0 0 0 -0 -0 -0 -0 -0 -0 -0 -0 0 0 -0 -0 -0 -0 nan
nan -0 -0 0 1 -0 -1 -0 -0 1 1 1 -0 0 2 2 1 1 1 1 1 1 1 0 0 0 0 0 -0 -0 -0 -0 -0 -0 -0 -0 -0 -0 -1 -0 0 0 nan
nan 1 1 0 0 0 -1 0 0 1 1 1 1 2 2 1 0 1 1 1 1 1 0 0 -0 0 0 -0 -0 -0 -0 -0 -0 -0 -0 -0 0 0 -0 -1 -0 0 nan
nan 0 0 0 1 -0 -0 -0 0 1 1 1 1 1 1 1 0 1 1 0 0 0 0 0 0 0 0 -0 -0 -0 -0 -0 -0 -0 -0 0 0 0 0 -1 -1 -0 nan
nan 0 0 0 0 0 -0 -0 1 1 1 1 1 1 1 1 1 1 1 0 0 0 0 0 0 0 0 -0 -0 -0 -0 -0 -0 -0 -0 0 0 1 1 -0 -1 -1 nan
nan 0 0 1 1 0 -0 0 1 1 1 1 1 1 1 1 1 1 1 1 0 -0 0 0 0 0 0 -0 -0 -0 -0 -0 -0 -0 -0 0 0 0 1 0 -1 -2 nan
nan 0 0 1 1 1 0 1 2 1 1 1 1 0 1 1 2 1 1 0 0 0 0 0 0 0 -0 -0 -0 -0 -0 -0 -0 -0 -0 -0 0 1 1 0 -0 -1 nan
nan 0 0 1 1 1 1 3 2 2 1 1 0 0 1 2 1 1 0 0 0 0 0 0 0 0 -0 -0 -0 -0 -0 0 0 -0 -0 0 0 0 1 0 -0 -0 nan
nan -0 0 1 1 1 1 2 2 1 1 1 1 1 1 1 1 0 0 0 0 0 0 0 0 -0 -0 -0 -0 -0 -0 0 0 -0 -0 0 0 1 0 0 0 -0 nan
nan -0 2 2 1 1 1 1 1 1 1 1 1 1 1 0 0 0 0 0 0 0 0 0 -0 -0 -0 -0 -0 -0 -0 -0 0 0 0 0 0 0 0 -0 -0 -0 nan
nan 1 1 1 1 1 1 1 1 1 0 1 1 1 1 0 0 0 0 0 0 0 0 0 -0 -0 -0 -0 -0 -0 -0 -0 0 0 0 0 0 0 0 0 -0 0 nan
nan 1 1 1 1 1 0 0 -0 1 0 1 1 0 0 0 0 0 0 0 0 0 0 -0 -0 -0 -0 -0 -0 -0 -0 -0 -0 0 0 0 0 0 -0 -0 -0 0 nan
nan 1 1 1 1 1 0 -0 0 1 1 1 0 0 0 0 0 0 0 0 0 0 -0 -0 -0 -0 -0 -0 -0 0 0 -0 -0 0 0 0 -0 0 0 -0 -0 -0 nan
nan 0 1 0 1 -0 -1 0 1 1 1 0 0 0 0 0 0 0 0 0 0 -0 -0 -0 -0 -0 -0 0 0 0 0 0 0 0 0 0 0 0 0 -0 -0 -0 nan
nan 0 0 1 0 0 1 0 1 1 0 0 0 0 0 0 0 0 0 0 -0 -0 -0 -0 -0 -0 -0 -0 0 -0 0 0 0 0 0 0 0 0 0 -0 -0 0 nan
nan -0 -0 -0 0 1 1 0 0 0 0 1 0 0 0 0 0 0 0 0 -0 -0 -0 -0 -0 -0 -0 -0 -0 -0 0 0 0 0 0 -0 -0 0 -0 0 -0 -0 nan
nan -0 -1 -1 -1 0 0 -0 0 0 1 0 0 0 0 0 0 0 -0 -0 -0 -0 -0 -0 -0 -0 -0 -0 -0 0 0 0 0 0 0 0 0 0 -0 -0 -0 -0 nan
nan -0 -1 -1 -1 -0 0 0 -0 0 0 1 0 0 0 0 0 0 0 -0 -0 -0 -0 -0 -0 -0 -0 -0 -0 0 0 -0 -0 -0 0 0 0 -0 -0 -0 -0 -1 nan
nan -1 -1 -0 -0 -0 0 0 -0 0 0 0 0 0 0 0 0 0 0 -0 -0 -0 -0 -0 -0 -0 -0 -0 -0 0 0 -0 -0 -0 -0 0 0 -0 -0 0 -0 -0 nan
nan 0 -0 0 1 0 0 -0 0 0 0 0 0 0 0 0 0 0 0 -0 -0 -0 -0 -0 -0 -0 -0 -0 -0 0 0 -0 -0 -0 -0 -0 -0 0 0 -0 0 0 nan
nan 1 0 0 1 1 1 0 0 0 0 0 0 0 0 0 0 0 -0 -0 -0 -0 -0 -0 -0 -0 -0 -1 -1 -0 0 -0 -0 -0 -0 -0 -0 -1 -0 0 0 0 nan
nan 1 0 0 -0 1 1 1 0 0 0 0 0 0 0 0 0 0 -0 -0 -0 -0 -0 -0 -0 -0 -0 -0 -1 -0 -0 -0 -0 -0 -0 -0 -0 -0 -1 -0 -0 -0 nan
nan 1 1 0 0 0 0 1 0 0 0 0 0 0 0 0 0 -0 -0 -0 -0 -0 -0 0 0 1 0 0 0 -0 -0 -0 -0 0 -0 -0 -0 -0 -0 -0 -0 0 nan
nan nan nan nan nan nan nan nan nan nan nan nan nan nan nan nan nan nan nan nan nan nan nan nan nan nan nan nan nan nan nan nan nan nan nan nan nan nan nan nan nan nan nan
Wind_Speed
26 25 23 21 23 31 33 30 29 26 23 24 24 23 26 33 33 30 30 29 26 22 20 16 13 10 7 6 8 11 13 15 15 12 12 9 7 13 10 11 12 20 17
34 32 29 28 25 26 31 30 30 27 25 25 24 21 28 36 35 33 30 29 26 24 20 17 14 10 7 6 8 10 13 13 13 12 9 4 5 4 6 18 18 14 16
35 34 34 33 29 27 28 31 31 30 28 27 27 31 34 36 36 32 28 27 26 24 20 16 12 10 6 7 8 10 11 11 12 11 6 4 3 13 8 14 14 13 22
30 32 33 33 32 29 30 29 31 31 30 31 30 29 31 38 37 32 30 28 27 23 18 14 11 8 6 6 9 10 10 9 10 11 10 7 9 5 10 8 13 18 20
24 26 27 30 29 30 34 31 30 30 31 30 28 27 30 36 36 32 30 29 26 21 16 14 12 7 5 7 8 10 9 10 10 10 11 11 10 9 8 19 15 22 22
19 22 21 22 24 26 34 34 32 30 30 28 26 28 31 35 36 33 32 29 24 20 18 13 9 5 5 7 9 9 10 11 11 12 12 11 9 9 11 18 22 26 24
16 17 18 19 20 24 31 35 33 32 31 29 28 28 28 31 33 31 33 30 25 23 17 12 7 4 5 7 9 10 11 11 12 12 13 14 13 15 16 18 24 26 27
21 20 19 19 22 24 29 35 36 33 32 30 28 27 28 33 34 31 30 26 24 19 13 9 5 4 5 7 9 10 11 12 13 14 15 15 16 17 17 18 22 31 26
18 19 20 19 21 23 29 37 36 34 31 31 30 29 30 34 34 31 27 24 21 16 11 7 4 3 6 8 9 10 12 13 14 15 16 17 18 19 18 19 19 23 34
25 28 24 22 19 20 26 32 33 34 32 32 30 30 31 33 32 30 28 23 18 13 9 5 2 4 6 8 9 11 12 14 15 16 18 19 19 20 20 19 20 21 27
42 40 28 22 19 20 26 29 31 34 33 33 33 32 34 35 32 30 26 20 15 11 6 3 2 4 7 8 10 12 14 15 16 18 19 20 21 21 20 20 20 22 24
31 32 27 23 23 24 27 29 32 33 34 35 35 36 36 35 32 29 23 17 12 8 5 2 3 5 7 9 11 13 15 17 18 20 20 21 22 23 20 19 21 23 25
2 17 22 23 27 25 27 31 33 35 37 37 38 38 37 34 30 25 20 15 11 6 2 2 4 6 8 10 13 15 17 18 20 20 22 23 22 21 20 21 22 24 27
7 16 20 24 27 26 28 33 36 38 40 39 39 38 36 31 27 22 17 13 8 4 1 2 4 7 10 13 15 16 18 19 20 22 23 23 22 20 21 22 24 25 28
12 16 21 25 31 30 33 37 40 42 41 41 39 37 33 28 23 19 14 10 6 2 0 3 6 9 12 14 16 17 18 19 20 22 22 20 21 24 22 22 24 27 30
13 17 22 28 30 34 40 41 42 42 41 39 37 33 29 24 20 16 12 8 4 1 2 5 8 11 13 16 18 19 19 20 21 21 20 20 21 21 23 23 25 26 29
15 18 23 29 33 39 41 43 43 42 39 36 33 29 25 22 18 14 10 6 3 1 4 7 10 13 15 17 19 21 22 20 21 20 20 20 20 22 23 25 26 27 29
15 19 26 30 36 40 42 42 41 39 36 32 29 26 22 18 15 11 7 4 2 3 6 9 12 15 17 18 20 22 22 20 19 19 20 20 21 22 24 28 30 32 29
18 25 28 33 37 40 41 41 39 35 32 29 26 23 19 15 12 9 5 2 2 5 8 12 15 16 18 20 21 23 20 17 18 19 20 21 23 22 27 28 33 31 29
21 27 30 33 36 38 38 37 36 32 28 26 23 20 16 13 10 6 3 0 3 7 11 14 16 18 19 21 22 23 19 17 19 20 21 22 22 26 26 30 31 32 29
24 27 30 34 36 37 36 34 31 28 25 23 21 18 14 10 6 4 1 2 6 10 13 15 17 18 20 21 22 22 18 17 21 22 23 22 25 27 30 28 27 25 28
27 29 33 34 34 33 32 30 28 26 24 21 18 15 11 8 5 2 2 5 9 12 15 16 17 18 19 22 22 22 18 18 21 23 23 27 28 30 29 27 24 24 25
29 29 32 33 32 31 30 30 28 25 23 19 16 13 8 5 3 1 4 8 12 14 15 17 18 19 21 21 22 21 20 22 23 23 28 29 29 29 27 23 22 21 18
27 30 33 33 32 31 28 24 25 22 19 17 14 9 7 5 2 3 7 10 13 14 15 16 19 20 20 18 19 20 22 21 23 27 29 27 26 23 22 21 19 18 19
27 30 33 33 32 29 26 23 21 19 17 13 10 8 6 3 2 6 9 12 13 14 16 18 21 20 20 19 22 23 23 24 26 28 23 21 20 20 20 19 19 20 21
29 32 33 31 31 29 25 22 18 16 13 11 10 7 4 2 5 8 11 12 13 15 17 19 20 22 22 24 22 21 22 24 24 23 18 18 18 19 20 21 24 26 28
Wind_Direction
250 247 244 242 238 236 235 235 238 246 244 233 213 202 198 206 213 210 209 210 214 214 214 221 227 229 225 252 291 309 319 325 329 338 336 315 295 294 277 261 269 302 297
247 246 243 240 237 234 231 229 231 239 236 233 217 202 208 212 216 216 215 215 205 204 210 213 217 211 221 261 297 316 325 329 338 349 351 318 293 300 273 285 291 284 290
243 240 237 234 233 231 228 228 226 232 232 226 208 212 218 214 211 211 210 198 199 202 210 205 204 211 228 277 306 324 331 333 338 347 358 325 289 306 282 293 296 290 292
243 241 238 235 231 228 232 229 226 227 226 223 222 226 224 211 209 204 199 195 193 196 193 200 209 214 252 288 314 327 330 335 334 335 338 324 301 311 308 295 309 288 309
248 244 240 235 230 228 227 229 226 223 221 217 220 216 215 212 205 195 192 191 188 190 195 200 202 231 267 303 321 329 331 331 329 329 331 328 320 306 288 302 302 302 308
252 250 246 244 235 226 221 224 222 215 213 210 211 208 214 211 196 192 191 189 189 187 186 193 211 239 289 312 326 327 327 329 328 331 330 327 313 297 294 296 300 303 311
260 251 257 242 231 218 218 216 213 205 203 201 200 207 210 209 203 200 193 189 186 181 186 191 212 254 298 317 326 326 325 327 329 327 323 320 312 308 303 298 300 300 304
265 260 259 248 234 221 214 211 206 200 197 193 193 197 199 200 193 191 188 185 180 182 183 194 219 271 307 324 325 323 325 327 326 322 319 316 313 309 304 299 301 305 303
261 268 263 251 227 216 206 204 200 196 191 187 186 189 193 195 191 182 178 177 177 177 187 197 233 287 317 322 323 326 328 325 318 317 317 317 313 308 304 300 297 298 303
275 271 267 244 223 210 199 192 191 189 184 180 181 183 188 187 176 175 175 177 174 178 185 202 243 303 318 323 328 327 323 319 316 316 316 314 311 308 305 300 296 292 291
277 261 253 229 210 194 181 179 178 181 177 176 175 177 174 173 172 171 171 173 174 177 183 203 277 313 324 329 327 322 318 316 315 316 314 313 312 308 305 301 296 294 293
278 236 221 201 171 174 169 168 173 173 173 171 169 168 169 172 169 168 168 170 173 172 180 225 305 322 328 327 322 319 317 317 316 314 313 314 311 310 307 303 299 295 295
189 162 167 171 151 162 161 162 165 169 168 165 166 164 166 166 166 165 166 167 168 167 177 290 319 328 327 324 319 319 319 317 314 314 314 313 311 308 304 301 299 298 297
142 140 152 157 142 153 153 157 162 166 163 164 162 161 162 164 163 163 163 163 161 161 197 316 327 329 325 321 322 322 318 315 314 313 311 309 307 303 303 302 299 298 298
135 141 148 145 136 148 154 160 163 163 163 162 159 159 161 162 162 162 160 160 157 152 328 331 331 326 324 325 323 320 317 314 311 309 308 306 300 304 301 301 302 301 298
130 142 140 134 145 153 160 160 160 160 161 159 157 158 160 161 161 159 158 154 141 114 355 334 327 328 325 323 322 321 318 312 310 309 307 306 305 304 304 300 301 300 302
143 141 135 143 156 160 161 159 157 157 160 158 157 158 161 161 158 156 151 140 121 37 337 328 328 327 325 323 322 322 319 310 310 308 308 308 306 307 306 306 308 302 301
129 131 141 150 158 158 158 155 155 157 158 157 157 160 161 160 155 150 142 131 89 338 331 329 328 327 324 325 324 322 321 311 308 307 307 307 307 309 310 311 308 310 306
141 150 154 156 155 156 157 156 156 157 158 158 159 160 160 156 148 146 136 106 342 331 331 329 327 326 327 327 324 324 320 311 310 310 309 306 307 309 315 311 313 309 305
147 152 152 152 155 156 158 158 156 157 158 159 160 157 152 153 148 139 128 44 330 331 331 329 328 328 326 326 328 327 322 315 314 314 312 310 309 315 315 313 309 307 306
154 155 155 155 157 158 160 158 156 158 161 161 158 156 153 149 147 146 139 324 329 330 329 331 329 325 325 327 330 329 325 318 316 315 314 311 312 315 310 310 306 301 308
159 161 160 160 161 162 164 160 161 163 163 161 158 152 152 155 150 156 311 327 330 331 332 328 327 327 328 329 329 327 324 322 318 313 311 310 314 310 313 313 309 309 306
163 165 164 160 160 164 171 168 164 163 160 157 155 155 151 164 168 264 321 329 332 330 327 328 329 328 328 329 329 332 330 321 317 313 312 312 311 317 318 317 317 316 313
161 164 164 162 160 169 171 171 160 158 159 158 156 158 167 170 211 310 330 331 328 329 331 330 328 326 327 327 327 327 323 320 318 315 314 311 317 319 319 321 321 318 315
161 164 166 164 166 166 167 163 157 158 159 162 164 169 174 193 306 326 328 327 327 332 333 328 326 323 322 321 322 319 321 319 314 312 315 315 318 318 319 320 320 322 321
162 166 167 166 161 161 161 157 156 159 167 170 169 171 181 274 316 322 325 329 332 332 330 327 326 325 321 320 319 321 317 316 320 320 315 314 316 318 320 323 326 331 333
Height
1451 1452 1454 1455 1456 1459 1463 1466 1469 1472 1474 1475 1477 1482 1483 1484 1486 1490 1494 1497 1500 1503 1506 1509 1510 1511 1512 1512 1512 1510 1508 1506 1503 1502 1500 1498 1497 1495 1494 1494 1493 1489 1488
1441 1442 1444 1447 1449 1451 1454 1458 1461 1464 1467 1469 1472 1475 1477 1477 1481 1485 1489 1492 1495 1500 1503 1505 1507 1508 1510 1510 1509 1507 1505 1504 1501 1500 1498 1499 1498 1493 1493 1491 1489 1487 1485
1429 1430 1433 1436 1439 1442 1445 1450 1454 1457 1460 1462 1465 1466 1468 1473 1476 1480 1485 1489 1493 1497 1500 1502 1505 1506 1506 1507 1506 1504 1503 1502 1500 1499 1499 1498 1497 1493 1490 1488 1485 1483 1481
1420 1421 1423 1426 1429 1433 1438 1441 1445 1449 1452 1455 1458 1461 1464 1466 1470 1475 1482 1486 1490 1494 1497 1500 1505 1504 1503 1504 1502 1501 1501 1500 1498 1497 1496 1495 1494 1492 1488 1484 1483 1479 1476
1413 1414 1414 1416 1421 1425 1429 1434 1437 1442 1445 1448 1452 1457 1460 1464 1467 1472 1479 1484 1488 1492 1495 1498 1502 1501 1501 1500 1499 1498 1498 1497 1497 1495 1492 1491 1489 1488 1487 1480 1478 1476 1472
1407 1408 1408 1410 1412 1416 1419 1424 1428 1434 1439 1443 1447 1451 1454 1459 1464 1469 1476 1482 1486 1489 1493 1496 1498 1498 1498 1498 1496 1496 1496 1495 1493 1491 1489 1488 1487 1486 1483 1478 1474 1469 1465
1401 1402 1402 1403 1405 1409 1411 1417 1421 1426 1432 1436 1440 1446 1452 1459 1463 1467 1473 1479 1483 1488 1492 1494 1495 1496 1496 1495 1494 1494 1493 1492 1490 1488 1486 1484 1482 1480 1477 1475 1469 1464 1460
1395 1397 1396 1396 1398 1401 1405 1411 1416 1421 1426 1431 1436 1442 1449 1456 1461 1466 1472 1478 1484 1487 1490 1492 1493 1493 1493 1492 1492 1492 1490 1489 1487 1485 1483 1481 1478 1475 1473 1471 1466 1456 1452
1389 1390 1391 1390 1393 1395 1398 1404 1412 1417 1423 1427 1432 1439 1447 1454 1459 1465 1473 1478 1482 1485 1488 1490 1491 1491 1491 1490 1490 1489 1487 1486 1484 1482 1479 1476 1474 1471 1469 1466 1463 1458 1444
1385 1385 1385 1386 1387 1392 1395 1401 1408 1414 1420 1425 1431 1437 1445 1453 1459 1465 1471 1478 1480 1484 1486 1487 1489 1489 1489 1488 1487 1486 1484 1483 1481 1478 1476 1473 1469 1466 1463 1460 1457 1453 1447
1373 1373 1376 1379 1382 1387 1392 1398 1405 1411 1419 1423 1428 1436 1445 1454 1459 1465 1471 1477 1479 1482 1484 1486 1487 1487 1486 1485 1484 1483 1481 1479 1477 1474 1471 1468 1464 1461 1458 1454 1451 1447 1443
1349 1352 1364 1372 1372 1384 1389 1396 1403 1411 1418 1422 1428 1436 1446 1454 1460 1464 1470 1475 1478 1480 1482 1484 1485 1484 1483 1483 1482 1480 1478 1476 1473 1470 1466 1462 1459 1455 1452 1449 1446 1442 1438
1349 1349 1360 1369 1367 1383 1389 1394 1402 1410 1418 1423 1430 1437 1447 1455 1460 1464 1469 1473 1477 1479 1481 1483 1483 1481 1480 1480 1479 1476 1474 1471 1468 1464 1460 1457 1454 1450 1447 1444 1440 1436 1431
1357 1356 1363 1369 1368 1383 1390 1395 1401 1411 1419 1426 1432 1439 1449 1457 1461 1465 1469 1473 1476 1477 1479 1480 1480 1479 1478 1477 1474 1472 1470 1467 1463 1460 1456 1452 1448 1445 1442 1438 1435 1430 1425
1361 1363 1367 1371 1371 1383 1389 1396 1404 1413 1421 1429 1435 1442 1450 1458 1461 1465 1469 1472 1474 1476 1477 1478 1478 1477 1475 1473 1471 1468 1466 1462 1459 1455 1451 1447 1443 1439 1436 1433 1429 1424 1418
1366 1369 1370 1369 1377 1384 1391 1399 1408 1417 1425 1432 1438 1445 1453 1459 1462 1465 1469 1471 1473 1474 1476 1476 1475 1473 1472 1469 1467 1464 1461 1458 1454 1449 1446 1442 1438 1434 1431 1427 1423 1418 1411
1370 1371 1372 1374 1383 1389 1396 1405 1413 1421 1430 1435 1441 1448 1455 1459 1462 1465 1469 1470 1472 1473 1473 1473 1472 1470 1468 1466 1463 1459 1456 1452 1448 1444 1440 1437 1433 1429 1425 1420 1416 1411 1406
1370 1373 1377 1382 1389 1395 1404 1411 1419 1427 1433 1438 1444 1450 1456 1460 1463 1466 1468 1469 1470 1471 1471 1470 1469 1467 1465 1462 1458 1455 1450 1447 1443 1440 1435 1431 1428 1424 1419 1413 1407 1403 1399
1375 1379 1383 1388 1395 1402 1409 1416 1424 1431 1436 1440 1446 1453 1457 1460 1463 1465 1466 1468 1469 1469 1468 1467 1466 1463 1461 1458 1454 1449 1445 1442 1439 1435 1431 1427 1422 1419 1414 1407 1401 1396 1391
1382 1384 1389 1395 1401 1409 1416 1422 1428 1433 1438 1444 1450 1455 1458 1461 1463 1464 1466 1467 1467 1467 1466 1464 1462 1459 1457 1453 1449 1445 1441 1438 1434 1430 1425 1421 1417 1412 1408 1402 1396 1389 1384
1387 1392 1397 1401 1407 1414 1420 1425 1430 1437 1443 1448 1452 1456 1458 1461 1462 1464 1465 1465 1466 1465 1464 1461 1458 1455 1452 1449 1445 1440 1436 1433 1429 1425 1420 1416 1411 1407 1402 1396 1390 1384 1378
1390 1395 1398 1405 1411 1418 1424 1429 1434 1440 1445 1450 1453 1456 1458 1460 1461 1463 1464 1464 1463 1462 1460 1458 1455 1452 1448 1443 1439 1435 1431 1429 1425 1420 1416 1410 1406 1400 1393 1387 1382 1378 1373
1395 1401 1406 1411 1417 1423 1428 1431 1437 1442 1447 1450 1453 1456 1458 1460 1461 1462 1462 1462 1460 1459 1457 1454 1450 1447 1443 1439 1434 1430 1428 1425 1420 1416 1411 1405 1399 1392 1386 1381 1376 1371 1368
1399 1403 1408 1414 1419 1425 1431 1436 1439 1444 1448 1451 1453 1456 1458 1459 1461 1461 1460 1459 1458 1455 1452 1449 1446 1443 1439 1435 1431 1427 1424 1420 1415 1410 1404 1398 1392 1387 1382 1376 1372 1368 1364
1401 1406 1411 1416 1421 1428 1434 1439 1442 1446 1449 1452 1454 1456 1458 1459 1459 1459 1459 1457 1455 1452 1449 1446 1443 1439 1435 1432 1427 1424 1420 1416 1411 1404 1398 1393 1388 1383 1378 1373 1369 1364 1359
1402 1408 1414 1419 1424 1431 1436 1440 1445 1448 1450 1452 1455 1457 1458 1459 1459 1458 1456 1454 1451 1449 1446 1443 1439 1435 1431 1426 1422 1419 1416 1410 1404 1398 1394 1390 1385 1380 1375 1369 1364 1359 1354